CAPE
5 6 10 17 15 16 14 8 7 7 7 11 16 16 5 21 26 21 24 14 13 37
11 14 21 8 8 14 12 8 14 12 10 11 12 9 30 34 26 33 33 32 29 38
8 12 13 19 10 10 8 14 9 10 9 9 7 20 14 10 16 29 47 41 17 40
6 16 20 13 6 13 19 10 23 9 7 11 9 7 23 8 18 11 11 14 21 14
14 13 6 9 9 23 11 17 18 16 13 7 12 19 13 14 12 18 9 10 9 18
7 7 15 21 6 6 6 14 10 6 9 6 13 15 20 18 20 11 17 20 20 21
7 10 14 14 14 8 21 23 11 8 4 7 6 11 13 10 16 22 16 21 27 22
17 28 13 21 15 21 23 18 8 9 8 8 5 10 9 9 17 32 32 38 26 35
13 12 12 12 22 15 13 7 9 8 2 6 2 0 1 6 13 14 23 32 29 19
13 10 13 10 9 12 10 6 9 8 3 6 5 0 0 2 4 1 2 5 7 13
8 7 6 12 14 14 10 16 17 10 6 7 6 0 0 0 8 9 6 6 13 9
11 7 11 14 14 17 16 13 11 6 6 9 15 1 0 3 5 5 8 8 9 17
13 12 11 16 17 14 9 7 10 9 14 2 11 1 0 4 5 5 7 9 11 0
11 11 13 12 16 15 11 7 6 7 8 5 3 5 2 2 5 5 6 10 19 27
CIN
-0 -0 -0 -0 -0 -0 -0 -0 -0 -0 -0 -0 -0 -0 -0 -0 -0 -0 -0 -0 -1 -0
-0 -0 -0 -1 -0 -0 -0 -0 -0 -0 -0 -0 -0 -0 -0 -0 -0 -0 -0 -0 -0 -0
-0 -0 -0 -0 -0 -0 -0 -0 -0 -0 -0 -0 -0 -0 -0 -0 -0 -0 -0 -0 -0 -0
-0 -0 -0 -0 -0 -0 -0 -0 -0 -0 -0 -0 -0 -0 -0 -0 -0 -0 -0 -0 -0 -0
-0 -0 -0 -0 -3 -0 -2 -2 -0 -0 -0 -0 -0 -0 -0 -0 -0 -0 -0 -0 -0 -0
-0 -0 -0 -0 -3 -2 -0 -0 -0 -0 -0 -0 -0 -0 -0 -0 -0 -0 -0 -0 -0 -0
-1 -0 -0 -0 -0 -0 -0 -0 -0 -0 -0 -0 -0 -0 -0 -0 -0 -0 -0 -0 -0 -0
-0 -0 -0 -0 -0 -0 -0 -0 -0 -0 -0 -0 -0 -0 -0 -0 -0 -0 -0 -0 -0 -0
-0 -0 -0 -0 -0 -0 -0 -0 -0 -0 -0 -0 -0 -0 -2 -0 -0 -0 -0 -0 -0 -0
-0 -0 -0 -0 -0 -0 -0 -0 -0 -0 -0 -0 -0 -0 -0 -0 -0 -0 -0 -0 -0 -0
-0 -0 -0 -0 -0 -0 -0 -0 -0 -0 -0 -0 -0 -0 -0 -0 -0 -0 -0 -0 -1 -0
-0 -0 -0 -0 -0 -0 -0 -0 -0 -0 -0 -0 -0 -3 -0 -0 -0 -0 -0 -1 -0 -0
-0 -0 -0 -0 -0 -0 -0 -0 -0 -0 -0 -1 -0 -0 -0 -0 -0 -0 -0 -0 -0 -0
-0 -0 -0 -0 -0 -0 -0 -0 -0 -0 -0 -0 -0 -0 -0 -0 -0 -0 -0 -0 -0 -0
Wind_Speed
9 6 7 7 8 7 7 8 10 9 10 11 10 9 9 9 9 11 9 10 9 7
8 9 8 10 8 6 8 8 10 11 11 12 11 10 10 7 9 10 11 11 11 9
10 9 8 8 8 8 8 10 10 10 12 12 9 9 7 7 9 11 8 8 11 11
10 8 8 8 9 9 9 10 10 10 11 12 10 9 8 10 9 11 11 11 10 12
9 9 8 8 9 8 9 9 11 10 11 10 11 10 10 10 11 12 12 12 12 12
10 9 10 7 8 7 7 8 9 10 10 11 10 11 11 11 12 11 11 11 12 15
10 9 9 9 7 8 9 10 10 10 11 9 9 10 10 11 11 11 12 14 15 14
11 10 11 11 9 10 8 8 9 10 10 10 9 7 12 13 13 13 15 15 15 14
12 11 11 10 11 10 10 5 10 9 10 10 7 9 13 14 12 14 15 14 15 14
12 11 11 11 11 10 9 9 8 9 10 10 10 11 17 19 12 11 11 11 10 9
10 11 11 12 12 10 8 10 8 9 10 10 9 13 18 20 12 10 9 8 9 8
9 10 10 11 11 10 10 9 9 9 9 10 10 13 18 18 11 9 9 10 8 7
10 10 10 10 11 10 10 10 9 10 11 11 13 15 19 19 9 9 7 10 9 6
10 10 10 10 10 11 11 10 11 11 10 12 13 15 19 23 10 8 7 7 8 8
Wind_Direction
332 315 313 310 312 304 313 331 326 330 320 323 318 311 302 296 294 295 287 276 269 277
325 319 314 310 308 319 330 320 336 329 327 327 319 312 304 294 283 289 290 292 294 278
338 343 322 311 326 331 318 320 321 331 330 306 310 307 304 298 295 293 290 285 282 286
348 333 324 325 322 313 325 324 324 330 314 314 320 316 308 304 291 291 294 298 293 284
334 340 332 315 325 331 329 339 332 322 323 321 310 315 305 296 295 290 284 278 275 271
327 330 329 319 324 342 335 320 319 325 313 315 316 304 292 286 286 282 282 284 284 283
337 339 328 312 318 344 332 317 329 329 318 313 311 309 304 308 296 281 277 273 272 268
345 346 340 329 341 328 328 317 326 322 321 319 317 310 320 305 302 295 287 280 274 267
356 344 347 337 335 339 330 337 318 324 321 320 319 309 304 303 297 295 292 289 285 286
1 351 351 353 346 349 340 325 332 316 325 324 315 346 316 320 307 295 284 285 288 284
357 353 9 356 351 349 337 331 328 331 327 318 333 328 324 329 317 306 310 307 293 287
353 348 352 349 352 350 340 338 339 331 323 330 328 331 334 337 323 315 323 305 307 317
357 353 354 352 351 358 354 348 340 338 340 340 336 338 342 340 326 319 322 314 319 256
1 356 355 360 357 360 355 356 358 355 348 346 343 342 343 336 334 328 316 320 325 318